Change the Weather History Date:

Wednesday, February 26, 2014

  Actual Average Record
Temperature  
Mean Temperature 38 °F -  
Max Temperature 46 °F 54 °F 82 °F (1977)
Min Temperature 29 °F 33 °F 10 °F (1967)
Degree Days  
Heating Degree Days 27    
Moisture  
Dew Point 19 °F    
Average Humidity 45    
Maximum Humidity 65    
Minimum Humidity 34    
Precipitation  
Precipitation 0.00 in - - ()
Sea Level Pressure  
Sea Level Pressure 29.90 in    
Wind  
Wind Speed 1 mph (North)    
Max Wind Speed 9 mph    
Max Gust Speed -    
Visibility 10 miles    
Events      
Averages and records for this station are not official NWS values.
T = Trace of Precipitation, MM = Missing Value Source: NWS Daily Summary

Daily Weather History Graph

Daily Weather History Graph

Search for Another Location

Airport or City:

Trip Planner

Search our weather history database for the weather conditions in past years. The results will help you decide how hot, cold, wet, or windy it might be!

Date:

Astronomy

Feb. 26, 2014 Rise Set
Actual Time 6:53 AM EST 6:12 PM EST
Civil Twilight 6:27 AM EST 6:37 PM EST
Nautical Twilight 5:58 AM EST 7:07 PM EST
Astronomical Twilight 5:28 AM EST 7:36 PM EST
Moon 4:33 AM EST (2/26) 3:28 PM EST (2/26)
Length of Visible Light 12h 10m
Length of Day
11h 18m
Waning Crescent, 10% of the Moon is Illuminated
Feb 26
Waning Crescent
Mar 1
New
Mar 8
First Quarter
Mar 16
Full
Mar 23
Last Quarter

Hourly Weather History & Observations

Time (EST) Temp. Windchill Dew Point Humidity Pressure Visibility Wind Dir Wind Speed Gust Speed Precip Events Conditions
12:15 AM 41.0 °F - 18.1 °F 40% 29.99 in 10.0 mi Calm Calm - N/A   Overcast
12:35 AM 41.0 °F - 17.6 °F 39% 29.98 in 10.0 mi Calm Calm - N/A   Overcast
12:55 AM 40.6 °F - 17.4 °F 39% 29.98 in 10.0 mi Calm Calm - N/A   Mostly Cloudy
1:15 AM 40.1 °F 36.9 °F 17.6 °F 40% 29.97 in 10.0 mi NE 4.6 mph - N/A   Scattered Clouds
1:35 AM 39.6 °F - 17.4 °F 41% 29.97 in 10.0 mi Calm Calm - N/A   Mostly Cloudy
1:55 AM 39.2 °F - 18.0 °F 42% 29.97 in 10.0 mi Calm Calm - N/A   Mostly Cloudy
2:15 AM 38.7 °F - 18.5 °F 44% 29.96 in 10.0 mi Calm Calm - N/A   Mostly Cloudy
2:35 AM 38.3 °F - 19.0 °F 46% 29.95 in 10.0 mi Calm Calm - N/A   Mostly Cloudy
2:55 AM 37.8 °F - 19.0 °F 47% 29.92 in 10.0 mi Calm Calm - N/A   Mostly Cloudy
3:15 AM 37.4 °F - 18.9 °F 47% 29.93 in 10.0 mi Calm Calm - N/A   Scattered Clouds
3:35 AM 36.9 °F - 19.4 °F 49% 29.93 in 10.0 mi Calm Calm - N/A   Mostly Cloudy
3:55 AM 37.4 °F - 19.0 °F 48% 29.94 in 10.0 mi Calm Calm - N/A   Overcast
4:15 AM 37.4 °F - 18.3 °F 46% 29.92 in 10.0 mi Calm Calm - N/A   Overcast
4:35 AM 37.4 °F - 18.1 °F 46% 29.92 in 10.0 mi Calm Calm - N/A   Overcast
4:55 AM 37.4 °F - 18.1 °F 46% 29.92 in 10.0 mi Calm Calm - N/A   Overcast
5:15 AM 37.0 °F - 17.8 °F 46% 29.92 in 10.0 mi Calm Calm - N/A   Overcast
5:35 AM 36.9 °F - 18.3 °F 47% 29.92 in 10.0 mi Calm Calm - N/A   Overcast
5:55 AM 36.5 °F - 18.5 °F 48% 29.93 in 10.0 mi Calm Calm - N/A   Overcast
6:15 AM 36.7 °F - 18.5 °F 48% 29.94 in 10.0 mi Calm Calm - N/A   Overcast
6:35 AM 36.7 °F - 18.5 °F 48% 29.95 in 10.0 mi Calm Calm - N/A   Overcast
6:55 AM 36.5 °F - 18.7 °F 49% 29.95 in 10.0 mi Calm Calm - N/A   Overcast
7:15 AM 36.5 °F - 19.4 °F 50% 29.95 in 10.0 mi Calm Calm - N/A   Overcast
7:35 AM 36.5 °F 31.8 °F 19.9 °F 51% 29.96 in 10.0 mi North 5.8 mph - N/A   Overcast
7:55 AM 36.5 °F - 19.4 °F 50% 29.97 in 10.0 mi Calm Calm - N/A   Overcast
8:15 AM 36.7 °F - 19.8 °F 50% 29.98 in 10.0 mi Calm Calm - N/A   Overcast
8:35 AM 36.9 °F - 20.1 °F 51% 29.98 in 10.0 mi Calm Calm - N/A   Overcast
8:55 AM 37.2 °F - 19.8 °F 49% 29.98 in 10.0 mi Calm Calm - N/A   Overcast
9:15 AM 37.6 °F - 19.9 °F 49% 29.98 in 10.0 mi Calm Calm - N/A   Overcast
9:35 AM 37.9 °F - 19.9 °F 48% 29.97 in 10.0 mi Calm Calm - N/A   Overcast
9:55 AM 38.5 °F - 20.5 °F 48% 29.96 in 10.0 mi Calm Calm - N/A   Overcast
10:15 AM 38.8 °F - 19.9 °F 47% 29.96 in 10.0 mi Calm Calm - N/A   Overcast
10:35 AM 39.4 °F - 19.4 °F 45% 29.95 in 10.0 mi Calm Calm - N/A   Mostly Cloudy
10:55 AM 40.1 °F 36.1 °F 19.4 °F 43% 29.94 in 10.0 mi North 5.8 mph - N/A   Scattered Clouds
11:15 AM 39.7 °F - 18.5 °F 42% 29.93 in 10.0 mi Calm Calm - N/A   Clear
11:35 AM 39.7 °F - 18.5 °F 42% 29.92 in 10.0 mi Calm Calm - N/A   Clear
11:55 AM 40.1 °F 36.1 °F 18.5 °F 42% 29.93 in 10.0 mi NNE 5.8 mph - N/A   Clear
12:15 PM 40.1 °F 34.1 °F 19.2 °F 43% 29.92 in 10.0 mi North 9.2 mph - N/A   Clear
12:40 PM 40.3 °F 37.1 °F 18.9 °F 42% 29.90 in 10.0 mi NNE 4.6 mph - N/A   Clear
12:55 PM 41.0 °F 37.1 °F 19.2 °F 42% 29.89 in 10.0 mi North 5.8 mph - N/A   Clear
1:15 PM 41.5 °F - 18.9 °F 40% 29.87 in 10.0 mi Calm Calm - N/A   Clear
1:35 PM 41.9 °F - 18.7 °F 39% 29.86 in 10.0 mi Calm Calm - N/A   Clear
1:55 PM 43.2 °F - 19.2 °F 38% 29.84 in 10.0 mi Calm Calm - N/A   Clear
2:15 PM 43.7 °F 38.6 °F 19.2 °F 38% 29.83 in 10.0 mi North 9.2 mph - N/A   Clear
2:35 PM 44.4 °F 40.5 °F 19.6 °F 37% 29.82 in 10.0 mi NNW 6.9 mph - N/A   Clear
2:55 PM 45.3 °F - 19.6 °F 36% 29.81 in 10.0 mi Calm Calm - N/A   Clear
3:15 PM 45.9 °F - 19.6 °F 35% 29.81 in 10.0 mi Calm Calm - N/A   Clear
3:35 PM 45.5 °F - 19.4 °F 35% 29.81 in 10.0 mi Calm Calm - N/A   Clear
3:55 PM 45.7 °F - 19.6 °F 35% 29.81 in 10.0 mi Calm Calm - N/A   Clear
4:15 PM 46.2 °F - 19.8 °F 35% 29.81 in 10.0 mi Calm Calm - N/A   Clear
4:35 PM 45.9 °F - 19.6 °F 35% 29.80 in 10.0 mi Calm Calm - N/A   Clear
4:55 PM 45.9 °F - 19.8 °F 35% 29.80 in 10.0 mi Calm Calm - N/A   Clear
5:15 PM 46.4 °F - 19.6 °F 34% 29.80 in 10.0 mi Calm Calm - N/A   Clear
5:35 PM 46.0 °F - 19.6 °F 35% 29.79 in 10.0 mi Calm Calm - N/A   Clear
5:55 PM 45.7 °F - 19.9 °F 36% 29.80 in 10.0 mi Calm Calm - N/A   Clear
6:15 PM 43.5 °F - 24.1 °F 46% 29.80 in 10.0 mi Calm Calm - N/A   Clear
6:35 PM 41.4 °F - 24.3 °F 51% 29.81 in 10.0 mi Calm Calm - N/A   Clear
6:55 PM 40.3 °F - 24.1 °F 52% 29.83 in 10.0 mi Calm Calm - N/A   Clear
7:15 PM 40.5 °F - 22.3 °F 48% 29.84 in 10.0 mi Calm Calm - N/A   Clear
7:35 PM 41.0 °F - 20.8 °F 45% 29.84 in 10.0 mi Calm Calm - N/A   Clear
7:55 PM 40.3 °F - 19.8 °F 44% 29.85 in 10.0 mi Calm Calm - N/A   Clear
8:15 PM 39.2 °F - 19.4 °F 45% 29.86 in 10.0 mi Calm Calm - N/A   Clear
8:35 PM 38.5 °F - 18.5 °F 45% 29.87 in 10.0 mi Calm Calm - N/A   Clear
8:55 PM 37.2 °F - 18.5 °F 47% 29.87 in 10.0 mi Calm Calm - N/A   Clear
9:15 PM 36.1 °F - 18.7 °F 49% 29.87 in 10.0 mi Calm Calm - N/A   Clear
9:35 PM 33.8 °F - 22.3 °F 63% 29.88 in 10.0 mi Calm Calm - N/A   Clear
9:55 PM 32.9 °F - 19.4 °F 58% 29.88 in 10.0 mi Calm Calm - N/A   Clear
10:15 PM 32.2 °F - 19.4 °F 59% 29.89 in 10.0 mi Calm Calm - N/A   Clear
10:35 PM 32.7 °F - 18.9 °F 57% 29.89 in 10.0 mi Calm Calm - N/A   Clear
10:55 PM 33.6 °F - 16.0 °F 48% 29.89 in 10.0 mi Calm Calm - N/A   Clear
11:15 PM 31.3 °F - 18.3 °F 59% 29.88 in 10.0 mi Calm Calm - N/A   Clear
11:35 PM 30.7 °F - 18.1 °F 60% 29.88 in 10.0 mi Calm Calm - N/A   Clear
11:55 PM 29.8 °F - 19.2 °F 65% 29.88 in 10.0 mi Calm Calm - N/A   Clear